Tracking 27111 objects as of 28-Mar-2023
HD Live streaming from Space Station
objects crossing your sky now

COSMOS 2248

Track COSMOS 2248 now!
10-day predictions
COSMOS 2248 is classified as:


NORAD ID: 22649
Int'l Code: 1993-030D
Perigee: 1,407.7 km
Apogee: 1,423.9 km
Inclination: 82.6 °
Period: 114.0 minutes
Semi major axis: 7786 km
RCS: 1.0352 m2 (large)
Launch date: May 11, 1993
Source: Commonwealth of Independent States (former USSR) (CIS)
Launch site: PLESETSK MISSILE AND SPACE COMPLEX (PKMTR)
Your satellite tracking list
Your tracking list is empty




NASA's NSSDC Master Catalog

Two Line Element Set (TLE):
1 22649U 93030D   23086.94069205  .00000018  00000-0  38286-4 0  9992
2 22649  82.5833 344.1258 0010426  84.2612 275.9668 12.63474102377748
Source of the keplerian elements: AFSPC